CET,Max TemperatureF,Mean TemperatureF,Min TemperatureF,Max Dew PointF,MeanDew PointF,Min DewpointF,Max Humidity, Mean Humidity, Min Humidity, Max Sea Level PressureIn, Mean Sea Level PressureIn, Min Sea Level PressureIn, Max VisibilityMiles, Mean VisibilityMiles, Min VisibilityMiles, Max Wind SpeedMPH, Mean Wind SpeedMPH, Max Gust SpeedMPH,PrecipitationIn, CloudCover, Events, WindDirDegrees
2012-11-1,55,45,35,52,43,32,100,88,76,29.83,29.57,29.44,6,6,2,18,10,29,0.00,7,Rain,123
2012-11-2,55,47,39,52,47,39,100,94,77,29.92,29.75,29.59,6,4,0,11,5,,0.00,5,Fog-Rain,242
2012-11-3,55,44,33,52,43,34,100,98,82,30.01,29.96,29.92,6,1,0,11,5,,0.00,4,Fog,161
2012-11-4,68,55,42,52,47,43,100,81,46,29.95,29.87,29.74,6,3,1,13,7,22,0.00,4,Rain,167
2012-11-5,59,52,44,54,48,39,100,87,77,29.77,29.59,29.47,6,6,2,18,11,27,0.00,7,Rain,246
2012-11-6,55,47,39,43,39,34,100,76,44,30.12,29.96,29.80,6,6,5,11,8,,0.00,4,Rain,271
2012-11-7,51,43,35,37,34,30,87,68,50,30.30,30.21,30.12,6,6,0,16,9,27,0.00,6,,273
2012-11-8,57,48,39,41,40,37,100,74,48,30.30,30.22,30.09,6,6,1,16,9,,0.00,5,,229
2012-11-9,57,46,33,41,39,34,100,82,44,30.18,30.08,30.04,6,5,1,18,5,22,0.00,3,Fog-Rain,282
2012-11-10,44,37,30,43,38,30,100,98,87,30.21,30.16,30.09,5,1,0,11,4,,0.00,5,Fog,126
2012-11-11,55,48,41,45,40,37,93,76,58,30.12,30.08,30.06,3,3,3,16,9,,0.00,,,129
2012-11-12,57,50,42,48,44,39,100,82,63,30.27,30.21,30.12,6,4,2,4,3,,0.00,8,Rain,48
2012-11-13,51,48,44,48,44,32,100,85,57,30.48,30.37,30.27,6,3,1,16,6,22,0.00,7,Rain,18
2012-11-14,48,40,33,41,35,28,100,77,61,30.48,30.46,30.42,6,5,1,13,8,,0.00,7,,41
2012-11-15,46,42,37,43,40,37,100,96,87,30.45,30.37,30.30,4,2,0,4,2,,0.00,7,Fog,36
2012-11-16,50,41,30,41,38,30,100,93,66,30.30,30.28,30.24,6,2,0,9,2,,0.00,3,Fog,54
2012-11-17,51,42,32,43,39,32,100,92,67,30.24,30.15,30.09,6,2,0,11,4,,0.00,4,Fog,110
2012-11-18,51,44,37,45,41,37,100,89,71,30.09,30.06,30.04,6,3,1,11,6,,0.00,4,Fog,121
2012-11-19,51,44,37,43,40,37,100,89,67,30.15,30.13,30.09,6,3,1,7,4,,0.00,3,Fog,67
2012-11-20,44,36,28,45,38,28,100,100,93,30.24,30.20,30.15,2,0,0,9,3,,0.00,5,Fog,36
2012-11-21,46,42,37,43,40,37,100,97,87,30.24,30.22,30.21,5,1,0,7,4,,0.00,7,Fog,59
2012-11-22,48,44,41,45,41,39,100,89,71,30.30,30.28,30.24,6,3,1,9,4,,0.00,7,,125
2012-11-23,46,44,42,45,44,43,100,97,93,30.27,30.25,30.24,2,2,0,4,3,,0.00,8,Fog-Rain,119
2012-11-24,51,44,35,46,44,36,100,95,76,30.27,30.26,30.24,4,2,0,4,1,,0.00,7,Fog,146
2012-11-25,46,39,32,45,39,32,100,100,93,30.24,30.19,30.15,2,0,0,9,3,,0.00,6,Fog,133
2012-11-26,48,44,39,46,43,39,100,96,93,30.15,30.07,29.95,3,2,0,9,5,,0.00,7,Fog,128
2012-11-27,59,50,42,46,44,41,100,89,63,29.95,29.89,29.83,5,3,2,9,7,,0.00,5,Fog,156
2012-11-28,57,50,42,48,44,41,100,84,67,29.80,29.67,29.44,6,3,2,11,8,,0.00,6,Rain,131
2012-11-29,60,51,42,50,46,34,100,79,59,29.44,29.38,29.33,6,6,3,20,9,27,0.00,5,Rain,184
2012-11-30,44,42,37,37,35,34,93,79,66,29.80,29.62,29.47,6,6,0,11,6,,0.00,7,Rain,293